Location: *
(34.8620°S, 39.3380°E)
Time: 22:34:50
(UTC+00:00)

SAOCOM 1-B - Pass Details

Date: 30 May 2022
Orbit: 621 x 623 km, 97.9° (Epoch: 01 July)

Event Time Altitude Azimuth Distance (km) Brightness Sun altitude
Rises 15:43:04 0° 340° (NNW) 2,891 ? -16.8°
Reaches altitude 10° 15:45:42 10° 324° (NW) 1,995 ? -17.3°
Maximum altitude 15:48:57 21° 275° (W) 1,437 ? -17.9°
Drops below altitude 10° 15:52:14 10° 226° (SW) 2,017 ? -18.6°
Sets 15:54:57 0° 209° (SSW) 2,934 ? -19.1°
